Flag Weather past 2 weeks in Bakersfield, California, U.S.A.

Now
53 °F

Low clouds.


Feels Like: 53 °F
Forecast: 50 / 63 °F
Wind: No wind

Location: Meadows Field

Current Time: Nov 23, 2014 at 8:11:10 AM

Latest Report: Nov 23, 2014 at 6:54 AM


Visibility: 6 mi

Pressure: 30.27 "Hg

Humidity: 83%

Dew point: 48 °F

Location of BakersfieldLocation

Historic Weather in Bakersfield — Graph

°F

Bakersfield temperature yesterday

Maximum temperature yesterday: 66 °F (at 2:54 PM)
Minimum temperature yesterday: 48 °F (at 6:54 AM)
Average temperature yesterday: 57 °F

Past Weeks' High & Low Weather Summary

 TemperatureHumidityPressure
High76 °F (Nov 9, 1:54 PM)96% (Nov 21, 5:54 AM)30.27 "Hg (Nov 21, 5:54 AM)
Low42 °F (Nov 18, 5:54 AM)17% (Nov 19, 12:54 PM)29.76 "Hg (Nov 10, 4:54 PM)
Average59 °F64%30.05 "Hg
* Reported Nov 8 6:54 AM — Nov 23 6:54 AM, Bakersfield, Weather by CustomWeather, © 2014

Note: Actual official high and low records may vary slightly from our data, if they occured in-between our weather recording intervals... More about our weather records

Advertising

Bakersfield weather history for previous 24 hours

 ConditionsComfort  
Time TempWeatherWind HumidityBarometerVisibility
6:54 AM
Nov 23
53 °FLow clouds.No wind83%30.27 "Hg6 mi
5:54 AM52 °FClear.8 mph83%30.22 "Hg6 mi
4:54 AM54 °FPassing clouds.12 mph83%30.20 "Hg7 mi
3:54 AM55 °FMostly cloudy.3 mph77%30.19 "Hg7 mi
2:54 AM55 °FOvercast.5 mph77%30.19 "Hg7 mi
1:54 AM55 °FOvercast.7 mph77%30.18 "Hg7 mi
12:54 AM56 °FMostly cloudy.5 mph75%30.17 "Hg8 mi
11:54 PM
Nov 22
57 °FMostly cloudy.7 mph72%30.16 "Hg10 mi
10:54 PM57 °FOvercast.6 mph74%30.14 "Hg10 mi
9:54 PM58 °FPassing clouds.6 mph75%30.13 "Hg10 mi
8:54 PM60 °FOvercast.7 mph69%30.12 "Hg10 mi
8:04 PM61 °FOvercast.9 mph60%30.11 "Hg10 mi
7:54 PM62 °FOvercast.9 mph58%30.10 "Hg10 mi
6:54 PM63 °FMostly cloudy.13 mph56%30.09 "Hg10 mi
5:54 PM64 °FOvercast.6 mph49%30.08 "Hg10 mi
4:54 PM65 °FOvercast.7 mph47%30.08 "Hg10 mi
3:54 PM66 °FMostly cloudy.8 mph43%30.09 "Hg10 mi
2:54 PM66 °FOvercast.6 mph43%30.09 "Hg10 mi
1:54 PM64 °FSunny.5 mph49%30.10 "Hg9 mi
12:54 PM64 °FSunny.No wind52%30.12 "Hg7 mi
11:54 AM62 °FSunny.No wind54%30.15 "Hg8 mi
10:54 AM60 °FSunny.No wind58%30.16 "Hg7 mi
9:54 AM56 °FSunny.No wind70%30.17 "Hg6 mi
8:54 AM53 °FSunny.No wind80%30.18 "Hg3 mi
Weather by CustomWeather, © 2014

See weather overviewHow to use our weather pages